| time (UTC) | temp C | wind direction | speed KPH | gust KPH | rain 1hr cm | rain 24hr cm | rain mn cm | humidity % | barometer mb |
| 20260503204507 | 12 | 117 | 11.3 | 17.7 | 0.00 | 0.00 | 0.00 | 77 | 1026.2 |
| 20260503203016 | 12 | 120 | 9.7 | 14.5 | 0.00 | 0.00 | 0.00 | 76 | 1026.3 |
| 20260503201503 | 12 | 167 | 9.7 | 16.1 | 0.00 | 0.00 | 0.00 | 75 | 1026.1 |
| 20260503200008 | 12 | 134 | 12.9 | 16.1 | 0.00 | 0.00 | 0.00 | 77 | 1026.0 |
| 20260503194516 | 11 | 130 | 6.4 | 11.3 | 0.00 | 0.00 | 0.00 | 79 | 1026.2 |
| 20260503193005 | 11 | 146 | 6.4 | 12.9 | 0.00 | 0.00 | 0.00 | 80 | 1026.2 |
| 20260503191512 | 11 | 148 | 6.4 | 9.7 | 0.00 | 0.00 | 0.00 | 77 | 1026.3 |
| 20260503190040 | 12 | 157 | 4.8 | 11.3 | 0.00 | 0.00 | 0.00 | 75 | 1026.3 |
| 20260503184509 | 12 | 131 | 4.8 | 11.3 | 0.00 | 0.00 | 0.00 | 73 | 1026.3 |
| 20260503183019 | 13 | 86 | 8.0 | 12.9 | 0.00 | 0.00 | 0.00 | 73 | 1026.3 |
| 20260503181524 | 13 | 111 | 8.0 | 17.7 | 0.00 | 0.00 | 0.00 | 72 | 1026.2 |
| 20260503180018 | 13 | 84 | 8.0 | 17.7 | 0.00 | 0.00 | 0.00 | 72 | 1026.3 |
| 20260503174521 | 13 | 108 | 9.7 | 16.1 | 0.00 | 0.00 | 0.00 | 73 | 1026.2 |
| 20260503173007 | 13 | 123 | 8.0 | 14.5 | 0.00 | 0.00 | 0.00 | 73 | 1026.3 |
| 20260503171524 | 13 | 101 | 9.7 | 12.9 | 0.00 | 0.00 | 0.00 | 74 | 1026.3 |
| 20260503054507 | 18 | 118 | 4.8 | 17.7 | 0.00 | 0.00 | 0.00 | 62 | 1024.6 |
| 20260503053012 | 18 | 133 | 9.7 | 20.9 | 0.00 | 0.00 | 0.00 | 62 | 1024.7 |
| 20260503051510 | 18 | 128 | 8.0 | 19.3 | 0.00 | 0.00 | 0.00 | 63 | 1024.9 |
| 20260503050011 | 17 | 165 | 6.4 | 14.5 | 0.00 | 0.00 | 0.00 | 64 | 1025.0 |
| 20260503041517 | 17 | 99 | 3.2 | 17.7 | 0.00 | 0.00 | 0.00 | 66 | 1025.6 |
| 20260503040016 | 17 | 139 | 8.0 | 19.3 | 0.00 | 0.00 | 0.00 | 67 | 1025.8 |
| 20260503034517 | 16 | 134 | 9.7 | 17.7 | 0.00 | 0.00 | 0.00 | 66 | 1026.0 |
| 20260503031517 | 15 | 112 | 12.9 | 22.5 | 0.00 | 0.00 | 0.00 | 70 | 1026.1 |
| 20260503030013 | 15 | 55 | 14.5 | 22.5 | 0.00 | 0.00 | 0.00 | 70 | 1026.1 |
| 20260503024518 | 15 | 130 | 6.4 | 17.7 | 0.00 | 0.00 | 0.00 | 70 | 1026.5 |
| 20260503023017 | 15 | 153 | 8.0 | 17.7 | 0.00 | 0.00 | 0.00 | 72 | 1026.7 |
| 20260503020017 | 14 | 131 | 9.7 | 19.3 | 0.00 | 0.00 | 0.00 | 73 | 1026.8 |
| 20260503014533 | 14 | 126 | 8.0 | 16.1 | 0.00 | 0.00 | 0.00 | 75 | 1026.7 |
| 20260503011519 | 13 | 154 | 4.8 | 19.3 | 0.00 | 0.00 | 0.00 | 77 | 1026.7 |
| 20260503010017 | 13 | 140 | 8.0 | 19.3 | 0.00 | 0.00 | 0.00 | 77 | 1026.7 |
| 20260503004515 | 13 | 131 | 4.8 | 14.5 | 0.00 | 0.00 | 0.00 | 77 | 1026.6 |
| 20260503003012 | 12 | 121 | 9.7 | 16.1 | 0.00 | 0.00 | 0.00 | 78 | 1026.5 |
| 20260503001519 | 12 | 134 | 4.8 | 8.0 | 0.00 | 0.00 | 0.00 | 81 | 1026.3 |
| 20260503000003 | 11 | 153 | 6.4 | 9.7 | 0.00 | 0.00 | 0.00 | 82 | 1026.3 |
| 20260502234515 | 10 | 126 | 4.8 | 9.7 | 0.00 | 0.00 | 0.00 | 83 | 1026.1 |
| 20260502233028 | 10 | 128 | 4.8 | 9.7 | 0.00 | 0.00 | 0.00 | 85 | 1026.1 |
| 20260502230020 | 9 | 121 | 4.8 | 9.7 | 0.00 | 0.00 | 0.00 | 86 | 1025.7 |
| 20260502223010 | 9 | 120 | 6.4 | 9.7 | 0.00 | 0.00 | 0.00 | 86 | 1025.2 |
| 20260502221520 | 9 | 128 | 4.8 | 6.4 | 0.00 | 0.00 | 0.00 | 87 | 1025.2 |
| 20260502220008 | 9 | 123 | 4.8 | 6.4 | 0.00 | 0.00 | 0.00 | 87 | 1025.1 |
| 20260502214516 | 9 | 123 | 4.8 | 6.4 | 0.00 | 0.00 | 0.00 | 86 | 1025.1 |
| 20260502213025 | 9 | 117 | 4.8 | 9.7 | 0.00 | 0.00 | 0.00 | 87 | 1025.0 |
| 20260502211519 | 9 | 94 | 6.4 | 6.4 | 0.00 | 0.00 | 0.00 | 87 | 1024.8 |
| 20260502210020 | 9 | 114 | 4.8 | 6.4 | 0.00 | 0.00 | 0.00 | 86 | 1024.9 |